Year,Month,Day,Hour,Minute,Value (Times are PST for temperature in C)
2010,07,17,00,00,11.60
2010,07,17,00,01,11.60
2010,07,17,00,02,11.60
2010,07,17,00,03,11.60
2010,07,17,00,04,11.60
2010,07,17,00,05,11.60
2010,07,17,00,06,11.60
2010,07,17,00,07,11.60
2010,07,17,00,08,11.60
2010,07,17,00,09,11.60
2010,07,17,00,10,11.60
2010,07,17,00,11,11.60
2010,07,17,00,12,11.60
2010,07,17,00,13,11.60
2010,07,17,00,14,11.60
2010,07,17,00,15,11.60
2010,07,17,00,16,11.60
2010,07,17,00,17,11.60
2010,07,17,00,18,11.50
2010,07,17,00,19,11.40
2010,07,17,00,20,11.40
2010,07,17,00,21,11.40
2010,07,17,00,22,11.40
2010,07,17,00,23,11.40
2010,07,17,00,24,11.40
2010,07,17,00,25,11.40
2010,07,17,00,26,11.40
2010,07,17,00,27,11.40
2010,07,17,00,28,11.40
2010,07,17,00,29,11.30
2010,07,17,00,30,11.30
2010,07,17,00,31,11.30
2010,07,17,00,32,11.20
2010,07,17,00,33,11.20
2010,07,17,00,34,11.20
2010,07,17,00,35,11.20
2010,07,17,00,36,11.20
2010,07,17,00,37,11.20
2010,07,17,00,38,11.20
2010,07,17,00,39,11.20
2010,07,17,00,40,11.20
2010,07,17,00,41,11.20
2010,07,17,00,42,11.10
2010,07,17,00,43,11.10
2010,07,17,00,44,11.10
2010,07,17,00,45,11.10
2010,07,17,00,46,11.10
2010,07,17,00,47,11.10
2010,07,17,00,48,11.10
2010,07,17,00,49,11.10
2010,07,17,00,50,11.10
2010,07,17,00,51,11.10
2010,07,17,00,52,11.10
2010,07,17,00,53,11.10
2010,07,17,00,54,11.10
2010,07,17,00,55,11.10
2010,07,17,00,56,11.10
2010,07,17,00,57,11.10
2010,07,17,00,58,11.10
2010,07,17,00,59,11.10
2010,07,17,01,00,11.10
2010,07,17,01,01,11.10
2010,07,17,01,02,11.10
2010,07,17,01,03,11.10
2010,07,17,01,04,11.10
2010,07,17,01,05,11.10
2010,07,17,01,06,11.10
2010,07,17,01,07,11.10
2010,07,17,01,08,11.00
2010,07,17,01,09,10.90
2010,07,17,01,10,10.90
2010,07,17,01,11,10.90
2010,07,17,01,12,10.90
2010,07,17,01,13,10.90
2010,07,17,01,14,10.90
2010,07,17,01,15,10.90
2010,07,17,01,16,10.90
2010,07,17,01,17,10.90
2010,07,17,01,18,10.80
2010,07,17,01,19,10.80
2010,07,17,01,20,10.80
2010,07,17,01,21,10.80
2010,07,17,01,22,10.80
2010,07,17,01,23,10.80
2010,07,17,01,24,10.80
2010,07,17,01,25,10.80
2010,07,17,01,26,10.80
2010,07,17,01,27,10.80
2010,07,17,01,28,10.80
2010,07,17,01,29,10.80
2010,07,17,01,30,10.80
2010,07,17,01,31,10.80
2010,07,17,01,32,10.80
2010,07,17,01,33,10.80
2010,07,17,01,34,10.80
2010,07,17,01,35,10.70
2010,07,17,01,36,10.70
2010,07,17,01,37,10.70
2010,07,17,01,38,10.70
2010,07,17,01,39,10.70
2010,07,17,01,40,10.70
2010,07,17,01,41,10.70
2010,07,17,01,42,10.70
2010,07,17,01,43,10.70
2010,07,17,01,44,10.70
2010,07,17,01,45,10.60
2010,07,17,01,46,10.60
2010,07,17,01,47,10.60
2010,07,17,01,48,10.60
2010,07,17,01,49,10.60
2010,07,17,01,50,10.60
2010,07,17,01,51,10.60
2010,07,17,01,52,10.60
2010,07,17,01,53,10.60
2010,07,17,01,54,10.60
2010,07,17,01,55,10.60
2010,07,17,01,56,10.60
2010,07,17,01,57,10.60
2010,07,17,01,58,10.60
2010,07,17,01,59,10.60
2010,07,17,02,00,10.60
2010,07,17,02,01,10.60
2010,07,17,02,02,10.60
2010,07,17,02,03,10.60
2010,07,17,02,04,10.60
2010,07,17,02,05,10.60
2010,07,17,02,06,10.60
2010,07,17,02,07,10.60
2010,07,17,02,08,10.60
2010,07,17,02,09,10.60
2010,07,17,02,10,10.60
2010,07,17,02,11,10.60
2010,07,17,02,12,10.60
2010,07,17,02,13,10.60
2010,07,17,02,14,10.60
2010,07,17,02,15,10.60
2010,07,17,02,16,10.60
2010,07,17,02,17,10.60
2010,07,17,02,18,10.60
2010,07,17,02,19,10.50
2010,07,17,02,20,10.40
2010,07,17,02,21,10.40
2010,07,17,02,22,10.40
2010,07,17,02,23,10.40
2010,07,17,02,24,10.40
2010,07,17,02,25,10.40
2010,07,17,02,26,10.40
2010,07,17,02,27,10.40
2010,07,17,02,28,10.40
2010,07,17,02,29,10.40
2010,07,17,02,30,10.40
2010,07,17,02,31,10.40
2010,07,17,02,32,10.40
2010,07,17,02,33,10.40
2010,07,17,02,34,10.40
2010,07,17,02,35,10.40
2010,07,17,02,36,10.40
2010,07,17,02,37,10.40
2010,07,17,02,38,10.40
2010,07,17,02,39,10.40
2010,07,17,02,40,10.40
2010,07,17,02,41,10.40
2010,07,17,02,42,10.40
2010,07,17,02,43,10.40
2010,07,17,02,44,10.40
2010,07,17,02,45,10.40
2010,07,17,02,46,10.30
2010,07,17,02,47,10.30
2010,07,17,02,48,10.30
2010,07,17,02,49,10.30
2010,07,17,02,50,10.20
2010,07,17,02,51,10.20
2010,07,17,02,52,10.20
2010,07,17,02,53,10.20
2010,07,17,02,54,10.30
2010,07,17,02,55,10.30
2010,07,17,02,56,10.30
2010,07,17,02,57,10.30
2010,07,17,02,58,10.30
2010,07,17,02,59,10.30
2010,07,17,03,00,10.30
2010,07,17,03,01,10.40
2010,07,17,03,02,10.40
2010,07,17,03,03,10.40
2010,07,17,03,04,10.40
2010,07,17,03,05,10.40
2010,07,17,03,06,10.40
2010,07,17,03,07,10.30
2010,07,17,03,08,10.30
2010,07,17,03,09,10.30
2010,07,17,03,10,10.20
2010,07,17,03,11,10.20
2010,07,17,03,12,10.20
2010,07,17,03,13,10.20
2010,07,17,03,14,10.20
2010,07,17,03,15,10.20
2010,07,17,03,16,10.10
2010,07,17,03,17,10.10
2010,07,17,03,18,10.10
2010,07,17,03,19,10.10
2010,07,17,03,20,10.10
2010,07,17,03,21,10.10
2010,07,17,03,22,10.10
2010,07,17,03,23,10.10
2010,07,17,03,24,10.10
2010,07,17,03,25,10.10
2010,07,17,03,26,10.10
2010,07,17,03,27,10.10
2010,07,17,03,28,10.10
2010,07,17,03,29,10.20
2010,07,17,03,30,10.20
2010,07,17,03,31,10.20
2010,07,17,03,32,10.20
2010,07,17,03,33,10.30
2010,07,17,03,34,10.30
2010,07,17,03,35,10.40
2010,07,17,03,36,10.40
2010,07,17,03,37,10.40
2010,07,17,03,38,10.30
2010,07,17,03,39,10.30
2010,07,17,03,40,10.30
2010,07,17,03,41,10.30
2010,07,17,03,42,10.20
2010,07,17,03,43,10.20
2010,07,17,03,44,10.20
2010,07,17,03,45,10.20
2010,07,17,03,46,10.20
2010,07,17,03,47,10.20
2010,07,17,03,48,10.20
2010,07,17,03,49,10.20
2010,07,17,03,50,10.20
2010,07,17,03,51,10.30
2010,07,17,03,52,10.30
2010,07,17,03,53,10.30
2010,07,17,03,54,10.30
2010,07,17,03,55,10.30
2010,07,17,03,56,10.30
2010,07,17,03,57,10.30
2010,07,17,03,58,10.30
2010,07,17,03,59,10.30
2010,07,17,04,00,10.30
2010,07,17,04,01,10.20
2010,07,17,04,02,10.20
2010,07,17,04,03,10.20
2010,07,17,04,04,10.20
2010,07,17,04,05,10.20
2010,07,17,04,06,10.20
2010,07,17,04,07,10.10
2010,07,17,04,08,10.10
2010,07,17,04,09,10.10
2010,07,17,04,10,10.10
2010,07,17,04,11,10.10
2010,07,17,04,12,10.10
2010,07,17,04,13,10.10
2010,07,17,04,14,10.10
2010,07,17,04,15,10.00
2010,07,17,04,16,9.90
2010,07,17,04,17,9.90
2010,07,17,04,18,9.90
2010,07,17,04,19,9.90
2010,07,17,04,20,9.90
2010,07,17,04,21,9.90
2010,07,17,04,22,9.90
2010,07,17,04,23,9.90
2010,07,17,04,24,9.80
2010,07,17,04,25,9.80
2010,07,17,04,26,9.80
2010,07,17,04,27,9.80
2010,07,17,04,28,9.80
2010,07,17,04,29,9.80
2010,07,17,04,30,9.80
2010,07,17,04,31,9.80
2010,07,17,04,32,9.80
2010,07,17,04,33,9.80
2010,07,17,04,34,9.80
2010,07,17,04,35,9.80
2010,07,17,04,36,9.80
2010,07,17,04,37,9.80
2010,07,17,04,38,9.80
2010,07,17,04,39,9.80
2010,07,17,04,40,9.80
2010,07,17,04,41,9.80
2010,07,17,04,42,9.80
2010,07,17,04,43,9.80
2010,07,17,04,44,9.80
2010,07,17,04,45,9.80
2010,07,17,04,46,9.80
2010,07,17,04,47,9.80
2010,07,17,04,48,9.80
2010,07,17,04,49,9.80
2010,07,17,04,50,9.80
2010,07,17,04,51,9.80
2010,07,17,04,52,9.80
2010,07,17,04,53,9.70
2010,07,17,04,54,9.70
2010,07,17,04,55,9.80
2010,07,17,04,56,9.80
2010,07,17,04,57,9.80
2010,07,17,04,58,9.90
2010,07,17,04,59,9.90
2010,07,17,05,00,9.90
2010,07,17,05,01,9.90
2010,07,17,05,02,9.80
2010,07,17,05,03,9.80
2010,07,17,05,04,9.80
2010,07,17,05,05,9.80
2010,07,17,05,06,9.80
2010,07,17,05,07,9.80
2010,07,17,05,08,9.80
2010,07,17,05,09,9.80
2010,07,17,05,10,9.80
2010,07,17,05,11,9.80
2010,07,17,05,12,9.80
2010,07,17,05,13,9.80
2010,07,17,05,14,9.70
2010,07,17,05,15,9.70
2010,07,17,05,16,9.70
2010,07,17,05,17,9.70
2010,07,17,05,18,9.70
2010,07,17,05,19,9.70
2010,07,17,05,20,9.70
2010,07,17,05,21,9.70
2010,07,17,05,22,9.70
2010,07,17,05,23,9.70
2010,07,17,05,24,9.70
2010,07,17,05,25,9.70
2010,07,17,05,26,9.70
2010,07,17,05,27,9.70
2010,07,17,05,28,9.70
2010,07,17,05,29,9.60
2010,07,17,05,30,9.60
2010,07,17,05,31,9.60
2010,07,17,05,32,9.60
2010,07,17,05,33,9.60
2010,07,17,05,34,9.60
2010,07,17,05,35,9.60
2010,07,17,05,36,9.60
2010,07,17,05,37,9.70
2010,07,17,05,38,9.70
2010,07,17,05,39,9.60
2010,07,17,05,40,9.60
2010,07,17,05,41,9.60
2010,07,17,05,42,9.60
2010,07,17,05,43,9.50
2010,07,17,05,44,9.50
2010,07,17,05,45,9.50
2010,07,17,05,46,9.50
2010,07,17,05,47,9.40
2010,07,17,05,48,9.50
2010,07,17,05,49,9.50
2010,07,17,05,50,9.50
2010,07,17,05,51,9.50
2010,07,17,05,52,9.50
2010,07,17,05,53,9.50
2010,07,17,05,54,9.60
2010,07,17,05,55,9.60
2010,07,17,05,56,9.60
2010,07,17,05,57,9.60
2010,07,17,05,58,9.60
2010,07,17,05,59,9.60
2010,07,17,06,00,9.60
2010,07,17,06,01,9.60
2010,07,17,06,02,9.70
2010,07,17,06,03,9.70
2010,07,17,06,04,9.70
2010,07,17,06,05,9.70
2010,07,17,06,06,9.70
2010,07,17,06,07,9.70
2010,07,17,06,08,9.70
2010,07,17,06,09,9.70
2010,07,17,06,10,9.70
2010,07,17,06,11,9.70
2010,07,17,06,12,9.70
2010,07,17,06,13,9.70
2010,07,17,06,14,9.70
2010,07,17,06,15,9.70
2010,07,17,06,16,9.70
2010,07,17,06,17,9.80
2010,07,17,06,18,9.80
2010,07,17,06,19,9.80
2010,07,17,06,20,9.90
2010,07,17,06,21,9.90
2010,07,17,06,22,9.90
2010,07,17,06,23,9.90
2010,07,17,06,24,10.00
2010,07,17,06,25,10.10
2010,07,17,06,26,10.10
2010,07,17,06,27,10.10
2010,07,17,06,28,10.20
2010,07,17,06,29,10.20
2010,07,17,06,30,10.30
2010,07,17,06,31,10.40
2010,07,17,06,32,10.40
2010,07,17,06,33,10.40
2010,07,17,06,34,10.50
2010,07,17,06,35,10.60
2010,07,17,06,36,10.60
2010,07,17,06,37,10.60
2010,07,17,06,38,10.60
2010,07,17,06,39,10.70
2010,07,17,06,40,10.70
2010,07,17,06,41,10.80
2010,07,17,06,42,10.80
2010,07,17,06,43,10.90
2010,07,17,06,44,10.90
2010,07,17,06,45,11.00
2010,07,17,06,46,11.10
2010,07,17,06,47,11.10
2010,07,17,06,48,11.10
2010,07,17,06,49,11.20
2010,07,17,06,50,11.20
2010,07,17,06,51,11.20
2010,07,17,06,52,11.30
2010,07,17,06,53,11.30
2010,07,17,06,54,11.40
2010,07,17,06,55,11.40
2010,07,17,06,56,11.40
2010,07,17,06,57,11.60
2010,07,17,06,58,11.60
2010,07,17,06,59,11.70
2010,07,17,07,00,11.70
2010,07,17,07,01,11.80
2010,07,17,07,02,11.80
2010,07,17,07,03,11.90
2010,07,17,07,04,11.90
2010,07,17,07,05,12.00
2010,07,17,07,06,12.00
2010,07,17,07,07,12.10
2010,07,17,07,08,12.10
2010,07,17,07,09,12.10
2010,07,17,07,10,12.20
2010,07,17,07,11,12.30
2010,07,17,07,12,12.30
2010,07,17,07,13,12.30
2010,07,17,07,14,12.40
2010,07,17,07,15,12.50
2010,07,17,07,16,12.60
2010,07,17,07,17,12.60
2010,07,17,07,18,12.70
2010,07,17,07,19,12.70
2010,07,17,07,20,12.80
2010,07,17,07,21,12.80
2010,07,17,07,22,12.80
2010,07,17,07,23,12.90
2010,07,17,07,24,12.90
2010,07,17,07,25,13.00
2010,07,17,07,26,13.10
2010,07,17,07,27,13.10
2010,07,17,07,28,13.20
2010,07,17,07,29,13.20
2010,07,17,07,30,13.30
2010,07,17,07,31,13.30
2010,07,17,07,32,13.30
2010,07,17,07,33,13.30
2010,07,17,07,34,13.30
2010,07,17,07,35,13.40
2010,07,17,07,36,13.40
2010,07,17,07,37,13.40
2010,07,17,07,38,13.50
2010,07,17,07,39,13.50
2010,07,17,07,40,13.60
2010,07,17,07,41,13.60
2010,07,17,07,42,13.70
2010,07,17,07,43,13.70
2010,07,17,07,44,13.80
2010,07,17,07,45,13.80
2010,07,17,07,46,13.90
2010,07,17,07,47,13.90
2010,07,17,07,48,13.90
2010,07,17,07,49,14.00
2010,07,17,07,50,14.00
2010,07,17,07,51,14.10
2010,07,17,07,52,14.10
2010,07,17,07,53,14.20
2010,07,17,07,54,14.20
2010,07,17,07,55,14.30
2010,07,17,07,56,14.40
2010,07,17,07,57,14.40
2010,07,17,07,58,14.60
2010,07,17,07,59,14.70
2010,07,17,08,00,14.80
2010,07,17,08,01,14.80
2010,07,17,08,02,14.80
2010,07,17,08,03,14.80
2010,07,17,08,04,14.90
2010,07,17,08,05,14.90
2010,07,17,08,06,15.00
2010,07,17,08,07,15.10
2010,07,17,08,08,15.30
2010,07,17,08,09,15.30
2010,07,17,08,10,15.40
2010,07,17,08,11,15.40
2010,07,17,08,12,15.40
2010,07,17,08,13,15.50
2010,07,17,08,14,15.50
2010,07,17,08,15,15.60
2010,07,17,08,16,15.60
2010,07,17,08,17,15.80
2010,07,17,08,18,15.70
2010,07,17,08,19,15.60
2010,07,17,08,20,15.60
2010,07,17,08,21,15.60
2010,07,17,08,22,15.60
2010,07,17,08,23,15.60
2010,07,17,08,24,15.70
2010,07,17,08,25,15.70
2010,07,17,08,26,15.70
2010,07,17,08,27,15.80
2010,07,17,08,28,15.70
2010,07,17,08,29,15.70
2010,07,17,08,30,15.70
2010,07,17,08,31,15.80
2010,07,17,08,32,15.80
2010,07,17,08,33,15.80
2010,07,17,08,34,15.80
2010,07,17,08,35,15.80
2010,07,17,08,36,15.80
2010,07,17,08,37,15.80
2010,07,17,08,38,15.70
2010,07,17,08,39,15.70
2010,07,17,08,40,15.70
2010,07,17,08,41,15.60
2010,07,17,08,42,15.50
2010,07,17,08,43,15.40
2010,07,17,08,44,15.30
2010,07,17,08,45,15.30
2010,07,17,08,46,15.30
2010,07,17,08,47,15.30
2010,07,17,08,48,15.30
2010,07,17,08,49,15.30
2010,07,17,08,50,15.40
2010,07,17,08,51,15.50
2010,07,17,08,52,15.60
2010,07,17,08,53,15.60
2010,07,17,08,54,15.80
2010,07,17,08,55,15.80
2010,07,17,08,56,15.80
2010,07,17,08,57,15.80
2010,07,17,08,58,15.80
2010,07,17,08,59,15.90
2010,07,17,09,00,16.00
2010,07,17,09,01,16.10
2010,07,17,09,02,16.10
2010,07,17,09,03,16.10
2010,07,17,09,04,16.10
2010,07,17,09,05,16.10
2010,07,17,09,06,15.90
2010,07,17,09,07,16.00
2010,07,17,09,08,16.10
2010,07,17,09,09,16.10
2010,07,17,09,10,16.20
2010,07,17,09,11,16.20
2010,07,17,09,12,16.20
2010,07,17,09,13,16.30
2010,07,17,09,14,16.30
2010,07,17,09,15,16.30
2010,07,17,09,16,16.30
2010,07,17,09,17,16.30
2010,07,17,09,18,16.20
2010,07,17,09,19,16.10
2010,07,17,09,20,16.20
2010,07,17,09,21,16.20
2010,07,17,09,22,16.40
2010,07,17,09,23,16.40
2010,07,17,09,24,16.40
2010,07,17,09,25,16.40
2010,07,17,09,26,16.40
2010,07,17,09,27,16.50
2010,07,17,09,28,16.60
2010,07,17,09,29,16.60
2010,07,17,09,30,16.70
2010,07,17,09,31,16.70
2010,07,17,09,32,16.70
2010,07,17,09,33,16.70
2010,07,17,09,34,16.70
2010,07,17,09,35,16.50
2010,07,17,09,36,16.40
2010,07,17,09,37,16.40
2010,07,17,09,38,16.40
2010,07,17,09,39,16.50
2010,07,17,09,40,16.60
2010,07,17,09,41,16.60
2010,07,17,09,42,16.60
2010,07,17,09,43,16.60
2010,07,17,09,44,16.60
2010,07,17,09,45,16.70
2010,07,17,09,46,16.70
2010,07,17,09,47,16.70
2010,07,17,09,48,16.70
2010,07,17,09,49,16.70
2010,07,17,09,50,16.70
2010,07,17,09,51,16.70
2010,07,17,09,52,16.70
2010,07,17,09,53,16.80
2010,07,17,09,54,16.80
2010,07,17,09,55,16.80
2010,07,17,09,56,16.80
2010,07,17,09,57,16.70
2010,07,17,09,58,16.70
2010,07,17,09,59,16.70
2010,07,17,10,00,16.70
2010,07,17,10,01,16.80
2010,07,17,10,02,16.80
2010,07,17,10,03,16.80
2010,07,17,10,04,16.90
2010,07,17,10,05,17.00
2010,07,17,10,06,16.90
2010,07,17,10,07,16.80
2010,07,17,10,08,16.80
2010,07,17,10,09,16.80
2010,07,17,10,10,16.70
2010,07,17,10,11,16.70
2010,07,17,10,12,16.80
2010,07,17,10,13,16.80
2010,07,17,10,14,16.80
2010,07,17,10,15,16.70
2010,07,17,10,16,16.70
2010,07,17,10,17,16.70
2010,07,17,10,18,16.70
2010,07,17,10,19,16.80
2010,07,17,10,20,16.80
2010,07,17,10,21,16.90
2010,07,17,10,22,16.90
2010,07,17,10,23,17.00
2010,07,17,10,24,17.10
2010,07,17,10,25,17.10
2010,07,17,10,26,17.30
2010,07,17,10,27,17.50
2010,07,17,10,28,17.70
2010,07,17,10,29,17.80
2010,07,17,10,30,17.90
2010,07,17,10,31,17.90
2010,07,17,10,32,17.90
2010,07,17,10,33,17.90
2010,07,17,10,34,17.90
2010,07,17,10,35,18.00
2010,07,17,10,36,18.20
2010,07,17,10,37,18.20
2010,07,17,10,38,18.20
2010,07,17,10,39,18.20
2010,07,17,10,40,18.20
2010,07,17,10,41,18.20
2010,07,17,10,42,18.20
2010,07,17,10,43,18.00
2010,07,17,10,44,18.00
2010,07,17,10,45,18.10
2010,07,17,10,46,18.20
2010,07,17,10,47,18.00
2010,07,17,10,48,17.90
2010,07,17,10,49,17.70
2010,07,17,10,50,17.60
2010,07,17,10,51,17.60
2010,07,17,10,52,17.60
2010,07,17,10,53,17.60
2010,07,17,10,54,17.50
2010,07,17,10,55,17.40
2010,07,17,10,56,17.40
2010,07,17,10,57,17.50
2010,07,17,10,58,17.70
2010,07,17,10,59,17.70
2010,07,17,11,00,17.70
2010,07,17,11,01,17.70
2010,07,17,11,02,17.80
2010,07,17,11,03,17.90
2010,07,17,11,04,17.90
2010,07,17,11,05,17.90
2010,07,17,11,06,17.70
2010,07,17,11,07,17.50
2010,07,17,11,08,17.50
2010,07,17,11,09,17.40
2010,07,17,11,10,17.10
2010,07,17,11,11,16.90
2010,07,17,11,12,16.80
2010,07,17,11,13,16.70
2010,07,17,11,14,16.70
2010,07,17,11,15,16.70
2010,07,17,11,16,16.70
2010,07,17,11,17,16.70
2010,07,17,11,18,16.70
2010,07,17,11,19,16.70
2010,07,17,11,20,16.60
2010,07,17,11,21,16.60
2010,07,17,11,22,16.50
2010,07,17,11,23,16.40
2010,07,17,11,24,16.30
2010,07,17,11,25,16.30
2010,07,17,11,26,16.30
2010,07,17,11,27,16.20
2010,07,17,11,28,16.20
2010,07,17,11,29,16.20
2010,07,17,11,30,16.10
2010,07,17,11,31,16.10
2010,07,17,11,32,15.90
2010,07,17,11,33,15.80
2010,07,17,11,34,15.80
2010,07,17,11,35,15.90
2010,07,17,11,36,15.90
2010,07,17,11,37,15.80
2010,07,17,11,38,15.70
2010,07,17,11,39,15.70
2010,07,17,11,40,15.70
2010,07,17,11,41,15.60
2010,07,17,11,42,15.60
2010,07,17,11,43,15.60
2010,07,17,11,44,15.70
2010,07,17,11,45,15.80
2010,07,17,11,46,15.80
2010,07,17,11,47,15.80
2010,07,17,11,48,15.80
2010,07,17,11,49,15.80
2010,07,17,11,50,15.70
2010,07,17,11,51,15.60
2010,07,17,11,52,15.60
2010,07,17,11,53,15.40
2010,07,17,11,54,15.40
2010,07,17,11,55,15.30
2010,07,17,11,56,15.30
2010,07,17,11,57,15.30
2010,07,17,11,58,15.30
2010,07,17,11,59,15.30
2010,07,17,12,00,15.30
2010,07,17,12,01,15.30
2010,07,17,12,02,15.30
2010,07,17,12,03,15.50
2010,07,17,12,04,15.50
2010,07,17,12,05,15.60
2010,07,17,12,06,15.60
2010,07,17,12,07,15.50
2010,07,17,12,08,15.40
2010,07,17,12,09,15.30
2010,07,17,12,10,15.20
2010,07,17,12,11,15.00
2010,07,17,12,12,14.90
2010,07,17,12,13,15.00
2010,07,17,12,14,15.00
2010,07,17,12,15,15.00
2010,07,17,12,16,15.00
2010,07,17,12,17,15.10
2010,07,17,12,18,15.10
2010,07,17,12,19,15.10
2010,07,17,12,20,15.00
2010,07,17,12,21,15.10
2010,07,17,12,22,15.10
2010,07,17,12,23,15.20
2010,07,17,12,24,15.20
2010,07,17,12,25,15.20
2010,07,17,12,26,15.00
2010,07,17,12,27,15.00
2010,07,17,12,28,14.90
2010,07,17,12,29,15.10
2010,07,17,12,30,15.10
2010,07,17,12,31,15.30
2010,07,17,12,32,15.30
2010,07,17,12,33,15.40
2010,07,17,12,34,15.50
2010,07,17,12,35,15.50
2010,07,17,12,36,15.50
2010,07,17,12,37,15.50
2010,07,17,12,38,15.60
2010,07,17,12,39,15.80
2010,07,17,12,40,15.90
2010,07,17,12,41,16.00
2010,07,17,12,42,16.10
2010,07,17,12,43,16.10
2010,07,17,12,44,16.10
2010,07,17,12,45,16.10
2010,07,17,12,46,16.10
2010,07,17,12,47,16.10
2010,07,17,12,48,16.00
2010,07,17,12,49,15.80
2010,07,17,12,50,15.70
2010,07,17,12,51,15.60
2010,07,17,12,52,15.50
2010,07,17,12,53,15.50
2010,07,17,12,54,15.50
2010,07,17,12,55,15.40
2010,07,17,12,56,15.30
2010,07,17,12,57,15.30
2010,07,17,12,58,15.30
2010,07,17,12,59,15.40
2010,07,17,13,00,15.50
2010,07,17,13,01,15.50
2010,07,17,13,02,15.50
2010,07,17,13,03,15.30
2010,07,17,13,04,15.30
2010,07,17,13,05,15.30
2010,07,17,13,06,15.40
2010,07,17,13,07,15.50
2010,07,17,13,08,15.60
2010,07,17,13,09,15.80
2010,07,17,13,10,15.80
2010,07,17,13,11,15.80
2010,07,17,13,12,15.70
2010,07,17,13,13,15.80
2010,07,17,13,14,15.80
2010,07,17,13,15,15.80
2010,07,17,13,16,15.80
2010,07,17,13,17,15.80
2010,07,17,13,18,15.80
2010,07,17,13,19,15.80
2010,07,17,13,20,15.80
2010,07,17,13,21,15.80
2010,07,17,13,22,15.80
2010,07,17,13,23,15.80
2010,07,17,13,24,15.90
2010,07,17,13,25,15.90
2010,07,17,13,26,15.90
2010,07,17,13,27,16.00
2010,07,17,13,28,16.10
2010,07,17,13,29,16.30
2010,07,17,13,30,16.40
2010,07,17,13,31,16.40
2010,07,17,13,32,16.60
2010,07,17,13,33,16.60
2010,07,17,13,34,16.70
2010,07,17,13,35,16.60
2010,07,17,13,36,16.60
2010,07,17,13,37,16.60
2010,07,17,13,38,16.70
2010,07,17,13,39,16.80
2010,07,17,13,40,16.80
2010,07,17,13,41,16.70
2010,07,17,13,42,16.70
2010,07,17,13,43,16.70
2010,07,17,13,44,16.70
2010,07,17,13,45,16.70
2010,07,17,13,46,16.70
2010,07,17,13,47,16.80
2010,07,17,13,48,16.90
2010,07,17,13,49,17.00
2010,07,17,13,50,17.20
2010,07,17,13,51,17.30
2010,07,17,13,52,17.50
2010,07,17,13,53,17.60
2010,07,17,13,54,17.60
2010,07,17,13,55,17.60
2010,07,17,13,56,17.60
2010,07,17,13,57,17.60
2010,07,17,13,58,17.70
2010,07,17,13,59,17.70
2010,07,17,14,00,17.60
2010,07,17,14,01,17.50
2010,07,17,14,02,17.60
2010,07,17,14,03,17.60
2010,07,17,14,04,17.50
2010,07,17,14,05,17.50
2010,07,17,14,06,17.50
2010,07,17,14,07,17.50
2010,07,17,14,08,17.50
2010,07,17,14,09,17.70
2010,07,17,14,10,17.70
2010,07,17,14,11,17.70
2010,07,17,14,12,17.80
2010,07,17,14,13,17.90
2010,07,17,14,14,17.90
2010,07,17,14,15,17.80
2010,07,17,14,16,17.80
2010,07,17,14,17,17.90
2010,07,17,14,18,17.90
2010,07,17,14,19,18.10
2010,07,17,14,20,18.10
2010,07,17,14,21,17.90
2010,07,17,14,22,17.70
2010,07,17,14,23,17.60
2010,07,17,14,24,17.50
2010,07,17,14,25,17.50
2010,07,17,14,26,17.50
2010,07,17,14,27,17.50
2010,07,17,14,28,17.60
2010,07,17,14,29,17.60
2010,07,17,14,30,17.60
2010,07,17,14,31,17.50
2010,07,17,14,32,17.50
2010,07,17,14,33,17.40
2010,07,17,14,34,17.30
2010,07,17,14,35,17.20
2010,07,17,14,36,17.10
2010,07,17,14,37,17.00
2010,07,17,14,38,16.90
2010,07,17,14,39,16.80
2010,07,17,14,40,16.70
2010,07,17,14,41,16.70
2010,07,17,14,42,16.70
2010,07,17,14,43,16.80
2010,07,17,14,44,16.80
2010,07,17,14,45,16.90
2010,07,17,14,46,17.10
2010,07,17,14,47,17.30
2010,07,17,14,48,17.40
2010,07,17,14,49,17.60
2010,07,17,14,50,17.70
2010,07,17,14,51,17.80
2010,07,17,14,52,18.00
2010,07,17,14,53,18.20
2010,07,17,14,54,18.30
2010,07,17,14,55,18.30
2010,07,17,14,56,18.40
2010,07,17,14,57,18.40
2010,07,17,14,58,18.40
2010,07,17,14,59,18.30
2010,07,17,15,00,18.20
2010,07,17,15,01,18.20
2010,07,17,15,02,18.30
2010,07,17,15,03,18.40
2010,07,17,15,04,18.50
2010,07,17,15,05,18.50
2010,07,17,15,06,18.50
2010,07,17,15,07,18.70
2010,07,17,15,08,18.70
2010,07,17,15,09,18.80
2010,07,17,15,10,18.90
2010,07,17,15,11,18.90
2010,07,17,15,12,18.90
2010,07,17,15,13,18.80
2010,07,17,15,14,18.70
2010,07,17,15,15,18.70
2010,07,17,15,16,18.70
2010,07,17,15,17,18.50
2010,07,17,15,18,18.50
2010,07,17,15,19,18.40
2010,07,17,15,20,18.20
2010,07,17,15,21,18.20
2010,07,17,15,22,18.20
2010,07,17,15,23,18.10
2010,07,17,15,24,18.10
2010,07,17,15,25,18.10
2010,07,17,15,26,18.10
2010,07,17,15,27,17.90
2010,07,17,15,28,17.90
2010,07,17,15,29,17.90
2010,07,17,15,30,17.90
2010,07,17,15,31,17.90
2010,07,17,15,32,17.90
2010,07,17,15,33,17.90
2010,07,17,15,34,17.90
2010,07,17,15,35,17.90
2010,07,17,15,36,17.90
2010,07,17,15,37,18.00
2010,07,17,15,38,18.10
2010,07,17,15,39,18.10
2010,07,17,15,40,18.20
2010,07,17,15,41,18.20
2010,07,17,15,42,18.30
2010,07,17,15,43,18.40
2010,07,17,15,44,18.40
2010,07,17,15,45,18.60
2010,07,17,15,46,18.60
2010,07,17,15,47,18.70
2010,07,17,15,48,18.90
2010,07,17,15,49,18.80
2010,07,17,15,50,18.80
2010,07,17,15,51,18.90
2010,07,17,15,52,18.80
2010,07,17,15,53,18.70
2010,07,17,15,54,18.60
2010,07,17,15,55,18.50
2010,07,17,15,56,18.40
2010,07,17,15,57,18.40
2010,07,17,15,58,18.40
2010,07,17,15,59,18.40
2010,07,17,16,00,18.50
2010,07,17,16,01,18.50
2010,07,17,16,02,18.60
2010,07,17,16,03,18.70
2010,07,17,16,04,18.70
2010,07,17,16,05,18.70
2010,07,17,16,06,18.90
2010,07,17,16,07,19.00
2010,07,17,16,08,19.10
2010,07,17,16,09,19.10
2010,07,17,16,10,19.10
2010,07,17,16,11,19.10
2010,07,17,16,12,19.10
2010,07,17,16,13,18.90
2010,07,17,16,14,18.90
2010,07,17,16,15,18.80
2010,07,17,16,16,18.70
2010,07,17,16,17,18.70
2010,07,17,16,18,18.70
2010,07,17,16,19,18.70
2010,07,17,16,20,18.70
2010,07,17,16,21,18.60
2010,07,17,16,22,18.60
2010,07,17,16,23,18.50
2010,07,17,16,24,18.50
2010,07,17,16,25,18.50
2010,07,17,16,26,18.50
2010,07,17,16,27,18.50
2010,07,17,16,28,18.60
2010,07,17,16,29,18.60
2010,07,17,16,30,18.60
2010,07,17,16,31,18.60
2010,07,17,16,32,18.50
2010,07,17,16,33,18.40
2010,07,17,16,34,18.40
2010,07,17,16,35,18.50
2010,07,17,16,36,18.50
2010,07,17,16,37,18.50
2010,07,17,16,38,18.50
2010,07,17,16,39,18.40
2010,07,17,16,40,18.30
2010,07,17,16,41,18.20
2010,07,17,16,42,18.30
2010,07,17,16,43,18.20
2010,07,17,16,44,18.20
2010,07,17,16,45,18.20
2010,07,17,16,46,18.30
2010,07,17,16,47,18.40
2010,07,17,16,48,18.40
2010,07,17,16,49,18.50
2010,07,17,16,50,18.60
2010,07,17,16,51,18.60
2010,07,17,16,52,18.70
2010,07,17,16,53,18.70
2010,07,17,16,54,18.80
2010,07,17,16,55,18.90
2010,07,17,16,56,19.10
2010,07,17,16,57,19.10
2010,07,17,16,58,19.00
2010,07,17,16,59,18.90
2010,07,17,17,00,18.90
2010,07,17,17,01,19.00
2010,07,17,17,02,19.10
2010,07,17,17,03,19.00
2010,07,17,17,04,18.90
2010,07,17,17,05,18.90
2010,07,17,17,06,18.90
2010,07,17,17,07,18.90
2010,07,17,17,08,18.90
2010,07,17,17,09,18.90
2010,07,17,17,10,18.90
2010,07,17,17,11,18.90
2010,07,17,17,12,18.90
2010,07,17,17,13,18.90
2010,07,17,17,14,18.80
2010,07,17,17,15,18.70
2010,07,17,17,16,18.60
2010,07,17,17,17,18.40
2010,07,17,17,18,18.10
2010,07,17,17,19,17.90
2010,07,17,17,20,17.70
2010,07,17,17,21,17.50
2010,07,17,17,22,17.40
2010,07,17,17,23,17.40
2010,07,17,17,24,17.40
2010,07,17,17,25,17.30